| time (UTC) | temp C | wind direction | speed KPH | gust KPH | rain 1hr cm | rain 24hr cm | rain mn cm | humidity % | barometer mb |
| 20260507082030 | 15 | 336 | 11.3 | 19.3 | 0.00 | 0.00 | 0.00 | 73 | 1011.3 |
| 20260507081537 | 15 | 354 | 8.0 | 16.1 | 0.00 | 0.00 | 0.00 | 73 | 1011.3 |
| 20260507081036 | 15 | 316 | 11.3 | 17.7 | 0.00 | 0.00 | 0.00 | 73 | 1011.3 |
| 20260507080520 | 15 | 14 | 4.8 | 16.1 | 0.00 | 0.00 | 0.00 | 74 | 1011.3 |
| 20260507080018 | 15 | 109 | 4.8 | 16.1 | 0.00 | 0.00 | 0.00 | 75 | 1011.3 |
| 20260507075537 | 15 | 48 | 6.4 | 14.5 | 0.00 | 0.00 | 0.00 | 75 | 1011.2 |
| 20260507075020 | 14 | 305 | 4.8 | 16.1 | 0.00 | 0.00 | 0.00 | 76 | 1011.3 |
| 20260507074518 | 14 | 342 | 9.7 | 16.1 | 0.00 | 0.00 | 0.00 | 76 | 1011.2 |
| 20260507074022 | 14 | 190 | 3.2 | 14.5 | 0.00 | 0.00 | 0.00 | 77 | 1011.2 |
| 20260507073520 | 14 | 332 | 8.0 | 14.5 | 0.00 | 0.00 | 0.00 | 77 | 1011.2 |
| 20260507073028 | 14 | 343 | 4.8 | 14.5 | 0.00 | 0.00 | 0.00 | 77 | 1011.2 |
| 20260507072516 | 14 | 8 | 8.0 | 11.3 | 0.00 | 0.00 | 0.00 | 77 | 1011.2 |
| 20260507071529 | 13 | 323 | 6.4 | 9.7 | 0.00 | 0.00 | 0.00 | 78 | 1011.1 |
| 20260507071016 | 13 | 355 | 1.6 | 6.4 | 0.00 | 0.00 | 0.00 | 79 | 1011.1 |
| 20260507070542 | 13 | 350 | 1.6 | 6.4 | 0.00 | 0.00 | 0.00 | 79 | 1011.1 |
| 20260507070019 | 13 | 12 | 1.6 | 4.8 | 0.00 | 0.00 | 0.00 | 79 | 1011.1 |
| 20260507065517 | 13 | 12 | 0.0 | 3.2 | 0.00 | 0.00 | 0.00 | 79 | 1011.1 |
| 20260507065016 | 13 | 12 | 0.0 | 6.4 | 0.00 | 0.00 | 0.00 | 80 | 1011.1 |
| 20260507064519 | 13 | 12 | 1.6 | 6.4 | 0.00 | 0.00 | 0.00 | 79 | 1011.1 |
| 20260507064017 | 13 | 349 | 0.0 | 3.2 | 0.00 | 0.00 | 0.00 | 80 | 1011.0 |
| 20260507063522 | 13 | 348 | 0.0 | 3.2 | 0.00 | 0.00 | 0.00 | 81 | 1011.0 |
| 20260507063020 | 13 | 18 | 0.0 | 6.4 | 0.00 | 0.00 | 0.00 | 81 | 1011.1 |
| 20260507062536 | 13 | 19 | 3.2 | 6.4 | 0.00 | 0.00 | 0.00 | 81 | 1010.9 |
| 20260507062014 | 12 | 360 | 1.6 | 4.8 | 0.00 | 0.00 | 0.00 | 81 | 1010.9 |
| 20260507061539 | 12 | 359 | 0.0 | 4.8 | 0.00 | 0.00 | 0.00 | 81 | 1010.8 |
| 20260507061037 | 12 | 359 | 1.6 | 4.8 | 0.00 | 0.00 | 0.00 | 82 | 1010.8 |
| 20260507060514 | 12 | 286 | 1.6 | 4.8 | 0.00 | 0.00 | 0.00 | 82 | 1010.8 |
| 20260507055511 | 12 | 284 | 0.0 | 8.0 | 0.00 | 0.00 | 0.00 | 81 | 1010.7 |
| 20260507055018 | 12 | 284 | 3.2 | 8.0 | 0.00 | 0.00 | 0.00 | 81 | 1010.6 |
| 20260507054516 | 12 | 284 | 3.2 | 11.3 | 0.00 | 0.00 | 0.00 | 81 | 1010.6 |
| 20260507054018 | 12 | 353 | 6.4 | 11.3 | 0.00 | 0.00 | 0.00 | 81 | 1010.5 |
| 20260507053515 | 12 | 321 | 3.2 | 8.0 | 0.00 | 0.00 | 0.00 | 81 | 1010.5 |
| 20260507052518 | 12 | 19 | 8.0 | 14.5 | 0.00 | 0.00 | 0.00 | 81 | 1010.5 |
| 20260507052050 | 12 | 321 | 8.0 | 14.5 | 0.00 | 0.00 | 0.00 | 81 | 1010.5 |
| 20260507051513 | 12 | 305 | 4.8 | 12.9 | 0.00 | 0.00 | 0.00 | 81 | 1010.3 |
| 20260507051019 | 12 | 320 | 6.4 | 12.9 | 0.00 | 0.00 | 0.00 | 81 | 1010.3 |
| 20260507050523 | 12 | 338 | 3.2 | 11.3 | 0.00 | 0.00 | 0.00 | 81 | 1010.3 |
| 20260507050021 | 12 | 293 | 6.4 | 11.3 | 0.00 | 0.00 | 0.00 | 81 | 1010.4 |
| 20260507045516 | 12 | 316 | 1.6 | 12.9 | 0.00 | 0.00 | 0.00 | 81 | 1010.4 |
| 20260507045021 | 12 | 28 | 4.8 | 19.3 | 0.00 | 0.00 | 0.00 | 81 | 1010.3 |
| 20260507044524 | 12 | 288 | 11.3 | 19.3 | 0.00 | 0.00 | 0.00 | 81 | 1010.3 |
| 20260507044048 | 12 | 341 | 4.8 | 24.1 | 0.00 | 0.00 | 0.00 | 81 | 1010.4 |
| 20260507043533 | 12 | 335 | 9.7 | 22.5 | 0.00 | 0.00 | 0.00 | 81 | 1010.3 |
| 20260507043036 | 12 | 24 | 11.3 | 16.1 | 0.00 | 0.00 | 0.00 | 81 | 1010.3 |
| 20260507042527 | 12 | 353 | 6.4 | 17.7 | 0.00 | 0.00 | 0.00 | 81 | 1010.4 |
| 20260507042031 | 12 | 14 | 4.8 | 17.7 | 0.00 | 0.00 | 0.00 | 81 | 1010.4 |
| 20260507041548 | 12 | 1 | 11.3 | 17.7 | 0.00 | 0.00 | 0.00 | 81 | 1010.4 |
| 20260507041032 | 12 | 344 | 6.4 | 16.1 | 0.00 | 0.00 | 0.00 | 81 | 1010.4 |
| 20260507040537 | 12 | 37 | 6.4 | 16.1 | 0.00 | 0.00 | 0.00 | 82 | 1010.4 |
| 20260507040013 | 12 | 7 | 3.2 | 14.5 | 0.00 | 0.00 | 0.00 | 82 | 1010.5 |
| 20260507035530 | 12 | 42 | 9.7 | 12.9 | 0.00 | 0.00 | 0.00 | 82 | 1010.5 |
| 20260507035028 | 12 | 28 | 6.4 | 16.1 | 0.00 | 0.00 | 0.00 | 81 | 1010.7 |
| 20260507034017 | 12 | 22 | 6.4 | 16.1 | 0.00 | 0.00 | 0.00 | 81 | 1010.6 |
| 20260507033530 | 12 | 1 | 4.8 | 19.3 | 0.00 | 0.00 | 0.00 | 81 | 1010.7 |
| 20260507033035 | 12 | 308 | 8.0 | 17.7 | 0.00 | 0.00 | 0.00 | 81 | 1010.7 |
| 20260507032524 | 12 | 26 | 6.4 | 17.7 | 0.00 | 0.00 | 0.00 | 81 | 1010.7 |
| 20260507032030 | 12 | 3 | 8.0 | 17.7 | 0.00 | 0.00 | 0.00 | 81 | 1010.8 |
| 20260507031526 | 12 | 295 | 8.0 | 16.1 | 0.00 | 0.00 | 0.00 | 81 | 1010.8 |
| 20260507031051 | 12 | 46 | 6.4 | 17.7 | 0.00 | 0.00 | 0.00 | 81 | 1010.8 |
| 20260507030528 | 12 | 347 | 6.4 | 20.9 | 0.00 | 0.00 | 0.00 | 81 | 1010.9 |
| 20260507030033 | 12 | 276 | 9.7 | 20.9 | 0.00 | 0.00 | 0.00 | 81 | 1010.8 |
| 20260507025522 | 12 | 326 | 9.7 | 25.7 | 0.00 | 0.00 | 0.00 | 81 | 1010.8 |
| 20260507025020 | 13 | 59 | 8.0 | 25.7 | 0.00 | 0.00 | 0.00 | 80 | 1010.8 |
| 20260507024525 | 13 | 313 | 12.9 | 24.1 | 0.00 | 0.00 | 0.00 | 80 | 1010.7 |
| 20260507024043 | 13 | 355 | 11.3 | 25.7 | 0.00 | 0.00 | 0.00 | 80 | 1010.8 |
| 20260507023547 | 13 | 330 | 12.9 | 25.7 | 0.00 | 0.00 | 0.00 | 80 | 1010.8 |
| 20260507023010 | 13 | 342 | 9.7 | 20.9 | 0.00 | 0.00 | 0.00 | 80 | 1010.8 |
| 20260507022520 | 13 | 357 | 11.3 | 22.5 | 0.00 | 0.00 | 0.00 | 80 | 1010.8 |
| 20260507022025 | 13 | 10 | 6.4 | 22.5 | 0.00 | 0.00 | 0.00 | 80 | 1010.9 |
| 20260507021523 | 13 | 286 | 12.9 | 20.9 | 0.00 | 0.00 | 0.00 | 80 | 1010.9 |
| 20260507021028 | 13 | 342 | 6.4 | 24.1 | 0.00 | 0.00 | 0.00 | 80 | 1010.9 |
| 20260507020546 | 13 | 347 | 6.4 | 24.1 | 0.00 | 0.00 | 0.00 | 80 | 1011.0 |
| 20260507020030 | 13 | 305 | 4.8 | 19.3 | 0.00 | 0.00 | 0.00 | 80 | 1010.9 |
| 20260507015519 | 13 | 5 | 6.4 | 19.3 | 0.00 | 0.00 | 0.00 | 80 | 1011.1 |
| 20260507015029 | 13 | 74 | 11.3 | 17.7 | 0.00 | 0.00 | 0.00 | 80 | 1011.1 |
| 20260507014527 | 13 | 309 | 9.7 | 24.1 | 0.00 | 0.00 | 0.00 | 80 | 1011.1 |
| 20260507014012 | 13 | 346 | 9.7 | 24.1 | 0.00 | 0.00 | 0.00 | 80 | 1011.2 |
| 20260507013526 | 13 | 355 | 3.2 | 16.1 | 0.00 | 0.00 | 0.00 | 80 | 1011.3 |
| 20260507013024 | 13 | 307 | 4.8 | 11.3 | 0.00 | 0.00 | 0.00 | 80 | 1011.4 |
| 20260507012547 | 13 | 359 | 6.4 | 17.7 | 0.00 | 0.00 | 0.00 | 80 | 1011.4 |
| 20260507012024 | 13 | 323 | 8.0 | 22.5 | 0.00 | 0.00 | 0.00 | 80 | 1011.5 |
| 20260507011536 | 13 | 288 | 12.9 | 22.5 | 0.00 | 0.00 | 0.00 | 80 | 1011.5 |
| 20260507011014 | 13 | 301 | 6.4 | 12.9 | 0.00 | 0.00 | 0.00 | 79 | 1011.5 |
| 20260507010539 | 13 | 331 | 4.8 | 14.5 | 0.00 | 0.00 | 0.00 | 79 | 1011.5 |
| 20260507010017 | 13 | 352 | 6.4 | 14.5 | 0.00 | 0.00 | 0.00 | 79 | 1011.6 |
| 20260507005533 | 13 | 38 | 4.8 | 17.7 | 0.00 | 0.00 | 0.00 | 79 | 1011.5 |
| 20260507005018 | 13 | 302 | 9.7 | 19.3 | 0.00 | 0.00 | 0.00 | 79 | 1011.6 |
| 20260507004515 | 13 | 31 | 8.0 | 19.3 | 0.00 | 0.00 | 0.00 | 79 | 1011.6 |
| 20260507004020 | 13 | 14 | 8.0 | 12.9 | 0.00 | 0.00 | 0.00 | 79 | 1011.6 |
| 20260507003525 | 13 | 350 | 4.8 | 14.5 | 0.00 | 0.00 | 0.00 | 79 | 1011.6 |
| 20260507003028 | 13 | 45 | 4.8 | 14.5 | 0.00 | 0.00 | 0.00 | 79 | 1011.6 |
| 20260507002526 | 13 | 345 | 6.4 | 16.1 | 0.00 | 0.00 | 0.00 | 79 | 1011.6 |
| 20260507002024 | 13 | 8 | 6.4 | 17.7 | 0.00 | 0.00 | 0.00 | 79 | 1011.7 |
| 20260507001511 | 13 | 16 | 9.7 | 17.7 | 0.00 | 0.00 | 0.00 | 79 | 1011.7 |
| 20260507001030 | 13 | 28 | 9.7 | 19.3 | 0.00 | 0.00 | 0.00 | 79 | 1011.7 |
| 20260507000535 | 13 | 15 | 11.3 | 19.3 | 0.00 | 0.00 | 0.00 | 79 | 1011.7 |
| 20260506235511 | 13 | 13 | 8.0 | 17.7 | 0.00 | 0.00 | 0.00 | 78 | 1011.8 |
| 20260506235030 | 13 | 35 | 11.3 | 17.7 | 0.00 | 0.00 | 0.00 | 78 | 1011.8 |
| 20260506234535 | 13 | 317 | 8.0 | 17.7 | 0.00 | 0.00 | 0.00 | 78 | 1011.8 |
| 20260506234014 | 13 | 338 | 9.7 | 19.3 | 0.00 | 0.00 | 0.00 | 78 | 1011.9 |
| 20260506233046 | 13 | 22 | 8.0 | 22.5 | 0.00 | 0.00 | 0.00 | 79 | 1012.0 |
| 20260506232514 | 13 | 87 | 6.4 | 22.5 | 0.00 | 0.00 | 0.00 | 79 | 1012.0 |
| 20260506232019 | 13 | 324 | 4.8 | 17.7 | 0.00 | 0.00 | 0.00 | 78 | 1011.9 |
| 20260506231517 | 13 | 28 | 4.8 | 17.7 | 0.00 | 0.00 | 0.00 | 78 | 1011.9 |
| 20260506231103 | 13 | 24 | 6.4 | 19.3 | 0.00 | 0.00 | 0.00 | 78 | 1011.8 |
| 20260506230523 | 13 | 22 | 8.0 | 16.1 | 0.00 | 0.00 | 0.00 | 78 | 1011.8 |
| 20260506230020 | 13 | 309 | 3.2 | 24.1 | 0.00 | 0.00 | 0.00 | 78 | 1011.8 |
| 20260506225510 | 13 | 345 | 9.7 | 24.1 | 0.00 | 0.00 | 0.00 | 78 | 1011.6 |
| 20260506225022 | 13 | 11 | 9.7 | 30.6 | 0.00 | 0.00 | 0.00 | 78 | 1011.7 |
| 20260506224520 | 13 | 337 | 16.1 | 30.6 | 0.00 | 0.00 | 0.00 | 78 | 1011.7 |
| 20260506224030 | 13 | 335 | 9.7 | 32.2 | 0.00 | 0.00 | 0.00 | 78 | 1011.7 |
| 20260506223514 | 13 | 322 | 16.1 | 32.2 | 0.00 | 0.00 | 0.00 | 79 | 1011.6 |
| 20260506223027 | 13 | 358 | 12.9 | 35.4 | 0.00 | 0.00 | 0.00 | 79 | 1011.7 |
| 20260506222518 | 13 | 342 | 24.1 | 35.4 | 0.00 | 0.00 | 0.00 | 79 | 1011.6 |
| 20260506222015 | 13 | 328 | 19.3 | 37.0 | 0.00 | 0.00 | 0.00 | 79 | 1011.7 |
| 20260506221521 | 13 | 336 | 14.5 | 37.0 | 0.00 | 0.00 | 0.00 | 79 | 1011.8 |
| 20260506221045 | 13 | 304 | 14.5 | 33.8 | 0.00 | 0.00 | 0.00 | 79 | 1011.8 |
| 20260506220550 | 13 | 357 | 17.7 | 33.8 | 0.00 | 0.00 | 0.00 | 79 | 1011.8 |
| 20260506220027 | 13 | 7 | 17.7 | 33.8 | 0.00 | 0.00 | 0.00 | 79 | 1011.9 |
| 20260506215524 | 13 | 300 | 14.5 | 33.8 | 0.00 | 0.00 | 0.00 | 78 | 1011.9 |
| 20260506215049 | 13 | 341 | 20.9 | 37.0 | 0.00 | 0.00 | 0.00 | 78 | 1011.9 |
| 20260506214526 | 13 | 338 | 17.7 | 37.0 | 0.00 | 0.00 | 0.00 | 78 | 1011.9 |
| 20260506214031 | 13 | 12 | 19.3 | 37.0 | 0.00 | 0.00 | 0.00 | 78 | 1011.9 |
| 20260506213536 | 13 | 349 | 24.1 | 37.0 | 0.00 | 0.00 | 0.00 | 78 | 1012.0 |
| 20260506213012 | 14 | 322 | 16.1 | 33.8 | 0.00 | 0.00 | 0.00 | 78 | 1012.0 |
| 20260506212529 | 14 | 340 | 17.7 | 38.6 | 0.00 | 0.00 | 0.00 | 78 | 1011.9 |
| 20260506212026 | 14 | 332 | 22.5 | 40.2 | 0.00 | 0.00 | 0.00 | 77 | 1011.8 |
| 20260506211528 | 14 | 341 | 24.1 | 40.2 | 0.00 | 0.00 | 0.00 | 77 | 1011.8 |
| 20260506211026 | 14 | 340 | 24.1 | 33.8 | 0.00 | 0.00 | 0.00 | 76 | 1011.9 |
| 20260506210531 | 14 | 359 | 16.1 | 33.8 | 0.00 | 0.00 | 0.00 | 76 | 1011.9 |
| 20260506210049 | 14 | 329 | 24.1 | 40.2 | 0.00 | 0.00 | 0.00 | 76 | 1011.8 |
| 20260506205544 | 14 | 327 | 20.9 | 40.2 | 0.00 | 0.00 | 0.00 | 76 | 1011.7 |
| 20260506205028 | 14 | 318 | 19.3 | 32.2 | 0.00 | 0.00 | 0.00 | 75 | 1011.8 |
| 20260506204526 | 14 | 355 | 20.9 | 35.4 | 0.00 | 0.00 | 0.00 | 75 | 1011.7 |
| 20260506204024 | 14 | 328 | 20.9 | 35.4 | 0.00 | 0.00 | 0.00 | 75 | 1011.7 |
| 20260506203528 | 14 | 320 | 19.3 | 33.8 | 0.00 | 0.00 | 0.00 | 75 | 1011.7 |
| 20260506202614 | 15 | 290 | 19.3 | 33.8 | 0.00 | 0.00 | 0.00 | 74 | 1011.6 |
| 20260506202034 | 15 | 330 | 22.5 | 33.8 | 0.00 | 0.00 | 0.00 | 74 | 1011.6 |
| 20260506201511 | 15 | 330 | 20.9 | 33.8 | 0.00 | 0.00 | 0.00 | 73 | 1011.6 |
| 20260506201009 | 15 | 323 | 24.1 | 33.8 | 0.00 | 0.00 | 0.00 | 73 | 1011.5 |
| 20260506200514 | 15 | 349 | 24.1 | 33.8 | 0.00 | 0.00 | 0.00 | 72 | 1011.5 |
| 20260506200012 | 15 | 10 | 19.3 | 33.8 | 0.00 | 0.00 | 0.00 | 72 | 1011.5 |
| 20260506195511 | 15 | 322 | 19.3 | 45.1 | 0.00 | 0.00 | 0.00 | 71 | 1011.6 |
| 20260506195016 | 15 | 338 | 24.1 | 45.1 | 0.00 | 0.00 | 0.00 | 70 | 1011.4 |
| 20260506194035 | 15 | 304 | 19.3 | 35.4 | 0.00 | 0.00 | 0.00 | 69 | 1011.5 |
| 20260506193520 | 15 | 320 | 16.1 | 35.4 | 0.00 | 0.00 | 0.00 | 68 | 1011.5 |
| 20260506193018 | 15 | 350 | 16.1 | 35.4 | 0.00 | 0.00 | 0.00 | 68 | 1011.4 |
| 20260506192514 | 15 | 5 | 19.3 | 38.6 | 0.00 | 0.00 | 0.00 | 67 | 1011.3 |
| 20260506192020 | 16 | 305 | 20.9 | 38.6 | 0.00 | 0.00 | 0.00 | 67 | 1011.2 |
| 20260506191519 | 16 | 311 | 17.7 | 32.2 | 0.00 | 0.00 | 0.00 | 67 | 1011.2 |
| 20260506191024 | 16 | 345 | 17.7 | 40.2 | 0.00 | 0.00 | 0.00 | 66 | 1011.3 |
| 20260506190610 | 16 | 359 | 17.7 | 35.4 | 0.00 | 0.00 | 0.00 | 67 | 1011.3 |
| 20260506185517 | 16 | 343 | 14.5 | 35.4 | 0.00 | 0.00 | 0.00 | 68 | 1011.3 |
| 20260506185013 | 16 | 336 | 19.3 | 30.6 | 0.00 | 0.00 | 0.00 | 66 | 1011.4 |
| 20260506184511 | 16 | 9 | 17.7 | 29.0 | 0.00 | 0.00 | 0.00 | 66 | 1011.3 |
| 20260506184039 | 16 | 347 | 17.7 | 29.0 | 0.00 | 0.00 | 0.00 | 66 | 1011.2 |
| 20260506183522 | 17 | 354 | 14.5 | 30.6 | 0.00 | 0.00 | 0.00 | 66 | 1011.2 |
| 20260506183028 | 17 | 335 | 20.9 | 30.6 | 0.00 | 0.00 | 0.00 | 66 | 1011.1 |
| 20260506182545 | 17 | 190 | 17.7 | 32.2 | 0.00 | 0.00 | 0.00 | 66 | 1011.2 |
| 20260506182022 | 17 | 190 | 24.1 | 32.2 | 0.00 | 0.00 | 0.00 | 66 | 1011.2 |
| 20260506181526 | 17 | 190 | 25.7 | 32.2 | 0.00 | 0.00 | 0.00 | 65 | 1011.1 |
| 20260506181031 | 17 | 190 | 22.5 | 33.8 | 0.00 | 0.00 | 0.00 | 65 | 1011.2 |
| 20260506180516 | 17 | 190 | 16.1 | 33.8 | 0.00 | 0.00 | 0.00 | 65 | 1011.1 |
| 20260506180014 | 17 | 190 | 22.5 | 33.8 | 0.00 | 0.00 | 0.00 | 64 | 1011.2 |
| 20260506175516 | 17 | 190 | 20.9 | 35.4 | 0.00 | 0.00 | 0.00 | 64 | 1011.2 |
| 20260506175014 | 17 | 190 | 24.1 | 35.4 | 0.00 | 0.00 | 0.00 | 64 | 1011.2 |
| 20260506174512 | 17 | 190 | 22.5 | 32.2 | 0.00 | 0.00 | 0.00 | 63 | 1011.2 |
| 20260506174017 | 17 | 332 | 20.9 | 33.8 | 0.00 | 0.00 | 0.00 | 62 | 1011.3 |
| 20260506173509 | 17 | 319 | 19.3 | 32.2 | 0.00 | 0.00 | 0.00 | 59 | 1011.3 |
| 20260506173023 | 18 | 356 | 19.3 | 32.2 | 0.00 | 0.00 | 0.00 | 59 | 1011.3 |
| 20260506172519 | 18 | 334 | 16.1 | 37.0 | 0.00 | 0.00 | 0.00 | 59 | 1011.3 |
| 20260506172124 | 18 | 329 | 20.9 | 35.4 | 0.00 | 0.00 | 0.00 | 57 | 1011.4 |
| 20260506171523 | 18 | 313 | 22.5 | 30.6 | 0.00 | 0.00 | 0.00 | 56 | 1011.4 |
| 20260506171020 | 18 | 346 | 16.1 | 27.4 | 0.00 | 0.00 | 0.00 | 58 | 1011.4 |
| 20260506170519 | 18 | 12 | 14.5 | 33.8 | 0.00 | 0.00 | 0.00 | 59 | 1011.4 |
| 20260506170030 | 18 | 348 | 17.7 | 33.8 | 0.00 | 0.00 | 0.00 | 58 | 1011.5 |
| 20260506165519 | 18 | 332 | 14.5 | 25.7 | 0.00 | 0.00 | 0.00 | 58 | 1011.6 |
| 20260506165031 | 18 | 24 | 17.7 | 30.6 | 0.00 | 0.00 | 0.00 | 59 | 1011.6 |
| 20260506164530 | 18 | 334 | 22.5 | 30.6 | 0.00 | 0.00 | 0.00 | 59 | 1011.7 |
| 20260506164042 | 18 | 288 | 14.5 | 29.0 | 0.00 | 0.00 | 0.00 | 60 | 1011.6 |
| 20260506163519 | 18 | 295 | 14.5 | 37.0 | 0.00 | 0.00 | 0.00 | 61 | 1011.6 |
| 20260506163024 | 18 | 305 | 24.1 | 37.0 | 0.00 | 0.00 | 0.00 | 60 | 1011.6 |
| 20260506162556 | 18 | 352 | 19.3 | 33.8 | 0.00 | 0.00 | 0.00 | 59 | 1011.6 |
| 20260506162018 | 18 | 292 | 17.7 | 37.0 | 0.00 | 0.00 | 0.00 | 59 | 1011.6 |
| 20260506161036 | 18 | 349 | 27.4 | 40.2 | 0.00 | 0.00 | 0.00 | 58 | 1011.6 |
| 20260506160515 | 18 | 342 | 17.7 | 32.2 | 0.00 | 0.00 | 0.00 | 59 | 1011.6 |
| 20260506160041 | 18 | 329 | 22.5 | 32.2 | 0.00 | 0.00 | 0.00 | 59 | 1011.6 |
| 20260506155535 | 18 | 332 | 12.9 | 38.6 | 0.00 | 0.00 | 0.00 | 59 | 1011.7 |
| 20260506155012 | 18 | 330 | 19.3 | 38.6 | 0.00 | 0.00 | 0.00 | 60 | 1011.7 |
| 20260506154025 | 18 | 307 | 20.9 | 30.6 | 0.00 | 0.00 | 0.00 | 59 | 1011.8 |
| 20260506153509 | 18 | 316 | 17.7 | 35.4 | 0.00 | 0.00 | 0.00 | 60 | 1011.8 |
| 20260506153035 | 18 | 344 | 22.5 | 35.4 | 0.00 | 0.00 | 0.00 | 60 | 1011.8 |
| 20260506152523 | 18 | 286 | 22.5 | 35.4 | 0.00 | 0.00 | 0.00 | 60 | 1011.8 |
| 20260506152022 | 18 | 344 | 16.1 | 33.8 | 0.00 | 0.00 | 0.00 | 60 | 1011.9 |
| 20260506151527 | 18 | 301 | 12.9 | 35.4 | 0.00 | 0.00 | 0.00 | 61 | 1012.0 |
| 20260506151026 | 18 | 1 | 22.5 | 33.8 | 0.00 | 0.00 | 0.00 | 61 | 1012.0 |
| 20260506150529 | 18 | 322 | 22.5 | 37.0 | 0.00 | 0.00 | 0.00 | 61 | 1012.0 |
| 20260506150028 | 18 | 347 | 25.7 | 33.8 | 0.00 | 0.00 | 0.00 | 61 | 1012.2 |
| 20260506145522 | 18 | 2 | 9.7 | 32.2 | 0.00 | 0.00 | 0.00 | 62 | 1012.3 |
| 20260506145011 | 18 | 190 | 20.9 | 33.8 | 0.00 | 0.00 | 0.00 | 61 | 1012.3 |
| 20260506144518 | 18 | 190 | 17.7 | 33.8 | 0.00 | 0.00 | 0.00 | 62 | 1012.5 |
| 20260506144014 | 18 | 347 | 19.3 | 33.8 | 0.00 | 0.00 | 0.00 | 61 | 1012.4 |
| 20260506143523 | 18 | 306 | 17.7 | 32.2 | 0.00 | 0.00 | 0.00 | 61 | 1012.4 |
| 20260506143017 | 18 | 343 | 20.9 | 32.2 | 0.00 | 0.00 | 0.00 | 61 | 1012.5 |
| 20260506142512 | 18 | 318 | 12.9 | 25.7 | 0.00 | 0.00 | 0.00 | 60 | 1012.6 |
| 20260506142009 | 18 | 313 | 11.3 | 29.0 | 0.00 | 0.00 | 0.00 | 61 | 1012.6 |
| 20260506141537 | 18 | 190 | 19.3 | 30.6 | 0.00 | 0.00 | 0.00 | 61 | 1012.7 |
| 20260506141014 | 18 | 190 | 20.9 | 30.6 | 0.00 | 0.00 | 0.00 | 61 | 1012.7 |
| 20260506140511 | 18 | 343 | 19.3 | 29.0 | 0.00 | 0.00 | 0.00 | 63 | 1012.7 |
| 20260506140018 | 18 | 330 | 16.1 | 24.1 | 0.00 | 0.00 | 0.00 | 63 | 1012.8 |
| 20260506135535 | 18 | 329 | 14.5 | 25.7 | 0.00 | 0.00 | 0.00 | 63 | 1012.9 |
| 20260506135030 | 18 | 190 | 14.5 | 30.6 | 0.00 | 0.00 | 0.00 | 62 | 1012.9 |
| 20260506134522 | 18 | 299 | 9.7 | 0.0 | 0.00 | 0.00 | 0.00 | 63 | 1012.9 |
| 20260506134043 | 18 | 334 | 6.4 | 20.9 | 0.00 | 0.00 | 0.00 | 63 | 1013.0 |
| 20260506133547 | 17 | 190 | 12.9 | 25.7 | 0.00 | 0.00 | 0.00 | 63 | 1013.0 |
| 20260506133118 | 17 | 190 | 11.3 | 25.7 | 0.00 | 0.00 | 0.00 | 63 | 1013.2 |
| 20260506132528 | 17 | 306 | 16.1 | 25.7 | 0.00 | 0.00 | 0.00 | 62 | 1013.2 |
| 20260506132013 | 17 | 344 | 16.1 | 30.6 | 0.00 | 0.00 | 0.00 | 64 | 1013.2 |
| 20260506131526 | 17 | 190 | 17.7 | 30.6 | 0.00 | 0.00 | 0.00 | 64 | 1013.2 |
| 20260506131044 | 17 | 311 | 12.9 | 29.0 | 0.00 | 0.00 | 0.00 | 64 | 1013.2 |
| 20260506130528 | 18 | 320 | 19.3 | 27.4 | 0.00 | 0.00 | 0.00 | 62 | 1013.4 |
| 20260506130054 | 18 | 14 | 19.3 | 27.4 | 0.00 | 0.00 | 0.00 | 63 | 1013.3 |
| 20260506125519 | 18 | 319 | 14.5 | 27.4 | 0.00 | 0.00 | 0.00 | 64 | 1013.3 |
| 20260506124011 | 17 | 5 | 12.9 | 29.0 | 0.00 | 0.00 | 0.00 | 66 | 1013.6 |
| 20260506123515 | 17 | 341 | 20.9 | 29.0 | 0.00 | 0.00 | 0.00 | 65 | 1013.8 |
| 20260506123013 | 17 | 348 | 16.1 | 25.7 | 0.00 | 0.00 | 0.00 | 66 | 1013.9 |
| 20260506122530 | 17 | 190 | 17.7 | 30.6 | 0.00 | 0.00 | 0.00 | 67 | 1013.9 |
| 20260506122014 | 17 | 190 | 24.1 | 30.6 | 0.00 | 0.00 | 0.00 | 65 | 1014.0 |
| 20260506121512 | 17 | 312 | 20.9 | 29.0 | 0.00 | 0.00 | 0.00 | 65 | 1014.0 |
| 20260506121015 | 17 | 6 | 9.7 | 29.0 | 0.00 | 0.00 | 0.00 | 65 | 1014.0 |
| 20260506120515 | 17 | 262 | 9.7 | 32.2 | 0.00 | 0.00 | 0.00 | 66 | 1014.1 |
| 20260506120021 | 17 | 309 | 19.3 | 32.2 | 0.00 | 0.00 | 0.00 | 66 | 1014.1 |
| 20260506115529 | 17 | 345 | 20.9 | 32.2 | 0.00 | 0.00 | 0.00 | 66 | 1014.2 |
| 20260506115013 | 17 | 306 | 22.5 | 32.2 | 0.00 | 0.00 | 0.00 | 67 | 1014.2 |
| 20260506114011 | 17 | 322 | 20.9 | 30.6 | 0.00 | 0.00 | 0.00 | 68 | 1014.2 |
| 20260506113518 | 17 | 334 | 16.1 | 25.7 | 0.00 | 0.00 | 0.00 | 68 | 1014.3 |
| 20260506113014 | 17 | 336 | 8.0 | 32.2 | 0.00 | 0.00 | 0.00 | 69 | 1014.2 |
| 20260506112532 | 17 | 334 | 20.9 | 32.2 | 0.00 | 0.00 | 0.00 | 69 | 1014.2 |
| 20260506112010 | 16 | 334 | 19.3 | 35.4 | 0.00 | 0.00 | 0.00 | 70 | 1014.3 |
| 20260506111531 | 17 | 4 | 20.9 | 35.4 | 0.00 | 0.00 | 0.00 | 70 | 1014.3 |
| 20260506111017 | 16 | 316 | 9.7 | 32.2 | 0.00 | 0.00 | 0.00 | 70 | 1014.3 |
| 20260506110513 | 16 | 335 | 20.9 | 32.2 | 0.00 | 0.00 | 0.00 | 72 | 1014.3 |
| 20260506110020 | 16 | 348 | 24.1 | 37.0 | 0.00 | 0.00 | 0.00 | 71 | 1014.4 |
| 20260506105537 | 16 | 342 | 22.5 | 33.8 | 0.00 | 0.00 | 0.00 | 70 | 1014.5 |
| 20260506105023 | 16 | 328 | 22.5 | 32.2 | 0.00 | 0.00 | 0.00 | 70 | 1014.4 |
| 20260506104522 | 16 | 323 | 20.9 | 37.0 | 0.00 | 0.00 | 0.00 | 71 | 1014.4 |
| 20260506104021 | 16 | 345 | 25.7 | 37.0 | 0.00 | 0.00 | 0.00 | 71 | 1014.4 |
| 20260506103527 | 16 | 344 | 16.1 | 30.6 | 0.00 | 0.00 | 0.00 | 69 | 1014.3 |
| 20260506103053 | 16 | 17 | 16.1 | 27.4 | 0.00 | 0.00 | 0.00 | 69 | 1014.4 |
| 20260506102522 | 17 | 190 | 17.7 | 27.4 | 0.00 | 0.00 | 0.00 | 67 | 1014.4 |
| 20260506102021 | 17 | 349 | 16.1 | 22.5 | 0.00 | 0.00 | 0.00 | 64 | 1014.4 |
| 20260506101527 | 17 | 6 | 12.9 | 25.7 | 0.00 | 0.00 | 0.00 | 62 | 1014.5 |
| 20260506101026 | 17 | 333 | 11.3 | 25.7 | 0.00 | 0.00 | 0.00 | 64 | 1014.5 |
| 20260506100532 | 17 | 320 | 6.4 | 16.1 | 0.00 | 0.00 | 0.00 | 65 | 1014.5 |
| 20260506100031 | 17 | 340 | 8.0 | 20.9 | 0.00 | 0.00 | 0.00 | 66 | 1014.5 |
| 20260506095527 | 17 | 342 | 6.4 | 20.9 | 0.00 | 0.00 | 0.00 | 66 | 1014.5 |
| 20260506095025 | 17 | 52 | 6.4 | 19.3 | 0.00 | 0.00 | 0.00 | 66 | 1014.6 |
| 20260506094531 | 16 | 17 | 6.4 | 22.5 | 0.00 | 0.00 | 0.00 | 67 | 1014.6 |
| 20260506094038 | 16 | 34 | 12.9 | 22.5 | 0.00 | 0.00 | 0.00 | 66 | 1014.6 |
| 20260506093536 | 16 | 360 | 8.0 | 22.5 | 0.00 | 0.00 | 0.00 | 67 | 1014.6 |
| 20260506093020 | 16 | 106 | 16.1 | 27.4 | 0.00 | 0.00 | 0.00 | 68 | 1014.5 |
| 20260506092529 | 16 | 42 | 17.7 | 27.4 | 0.00 | 0.00 | 0.00 | 68 | 1014.6 |
| 20260506092035 | 16 | 94 | 4.8 | 17.7 | 0.00 | 0.00 | 0.00 | 69 | 1014.6 |
| 20260506091029 | 16 | 317 | 8.0 | 20.9 | 0.00 | 0.00 | 0.00 | 69 | 1014.6 |
| 20260506090534 | 16 | 326 | 8.0 | 22.5 | 0.00 | 0.00 | 0.00 | 69 | 1014.5 |
| 20260506090011 | 16 | 3 | 11.3 | 22.5 | 0.00 | 0.00 | 0.00 | 69 | 1014.6 |
| 20260506085529 | 16 | 353 | 6.4 | 17.7 | 0.00 | 0.00 | 0.00 | 70 | 1014.5 |
| 20260506085027 | 16 | 29 | 8.0 | 17.7 | 0.00 | 0.00 | 0.00 | 71 | 1014.6 |
| 20260506084526 | 16 | 72 | 6.4 | 17.7 | 0.00 | 0.00 | 0.00 | 73 | 1014.6 |
| 20260506083027 | 15 | 271 | 8.0 | 19.3 | 0.00 | 0.00 | 0.00 | 76 | 1014.7 |
| 20260506082530 | 15 | 28 | 9.7 | 20.9 | 0.00 | 0.00 | 0.00 | 76 | 1014.7 |